Location: ???? ?????????
(44.3677°N, 135.2344°E)
Time: 07:33:20
(UTC+00:00)

Meteor 2-8 Rocket - Pass Details

Date: 19 May 2025
Orbit: 937 x 957 km, 82.5° (Epoch: 23 June)

Event Time Altitude Azimuth Distance (km) Brightness Sun altitude
Rises 14:34:46 0° 350° (N) 3,648 8.9 -25.5°
Reaches altitude 10° 14:37:16 10° 351° (N) 2,698 7.9 -25.6°
Maximum altitude 14:43:28 87° 263° (W) 965 4.3 -25.7°
Enters shadow 14:44:33 63° 180° (S) 1,059 4.3 -25.7°
